Regional Weather Roundup
Issued by NWS

Home | Current Version | Previous Version | Text Only | Print | Product List | Glossary On
Versions: 1 2 3 4 5 6 7 8 9 10 11 12 13 14 15 16 17 18 19 20 21 22 23 24 25 26 27 28 29 30 31 32 33 34 35 36 37 38 39 40 41 42 43 44 45 46 47 48 49 50
827
ASUS43 KBIS 051610
RWRND

NORTH DAKOTA REGIONAL WEATHER ROUNDUP
NATIONAL WEATHER SERVICE BISMARCK ND
1100 AM CDT THU MAY 05 2016

NOTE: "FAIR" INDICATES FEW OR NO CLOUDS BELOW 12,000 FEET WITH NO
SIGNIFICANT WEATHER AND/OR OBSTRUCTIONS TO VISIBILITY.


NDZ001>003-009>011-017-051700-
NORTHWEST NORTH DAKOTA

CITY           SKY/WX    TMP DP  RH WIND       PRES   REMARKS
WILLISTON      SUNNY     73  47  39 S7        29.84F
MINOT          SUNNY     82  43  25 SW16      29.83S
MINOT AFB      SUNNY     80  46  30 SW10      29.81F
$$

NDZ018>021-031>035-040>046-051700-
SOUTHWEST NORTH DAKOTA

CITY           SKY/WX    TMP DP  RH WIND       PRES   REMARKS
BISMARCK       SUNNY     77  42  28 SW14G25   29.90F
DICKINSON      SUNNY     74  46  36 SW8       29.88F
GARRISON         N/A     77  44  30 SW12      29.87F
HETTINGER ARPT SUNNY     69  46  43 S3        29.93F
$$

NDZ004>008-012>016-024-026-027-054-051700-
NORTHEAST NORTH DAKOTA

CITY           SKY/WX    TMP DP  RH WIND       PRES   REMARKS
GRAND FORKS    MOSUNNY   83  43  24 W21       29.81F
GRND FRKS AFB  SUNNY     82  43  24 W21G26    29.82F
DEVILS LAKE    SUNNY     78  45  30 W20       29.86F
$$

NDZ022-023-025-028>030-036>039-047>053-051700-
SOUTHEAST NORTH DAKOTA

CITY           SKY/WX    TMP DP  RH WIND       PRES   REMARKS
FARGO          SUNNY     74  42  31 S13       29.89F
JAMESTOWN      SUNNY     79  41  25 W20       29.89F
$$





USA.gov is the U.S. government's official web portal to all federal, state and local government web resources and services.